星链-4288 (STARLINK-4288 )

导读

STARLINK-4288是美国于2022年7月7日发射的星链系列卫星,属于SpaceX星链低轨互联网星座组网卫星,承载着为全球提供宽带互联网接入服务的使命。该卫星运行在近地轨道,依托星链星座规模化部署,助力实现全球覆盖,推动空天地一体化网络建设,为偏远地区通信、移动互联网服务等提供支撑,是星链星座组网建设的重要组成部分。

基本信息
目录编号:
53005
目录名称:
STARLINK-4288
国际标识:
2022-076V
轨道中心:
EARTH
卫星名称:
星链-4288
卫星全名:
星链-4288 (STARLINK-4288 )
卫星状态:
在轨 (已飞行1441 天)
发射日期:
2022-07-07 UTC
国别 :
美国 (US)
星等 :
--
轨道信息
数据来源 国际轨道数据
星历时间: 2026-06-17T12:00:02+0800
9小时前
查看轨道信息
半长轴: 6910.089km
偏心率: 0.0001253
轨道倾角: 53.159°
近地点辐角 86.716°
升交点赤经 7.438°
平近点角 358.567°
近地点: 531.086km
远地点: 532.818km
周期: 95.276分钟
每日圈数: 15.113927
详细信息
固有亮度:
5
最大亮度:
2.5
卫星平台:
Starlink v1.5
覆盖范围:
全球
运营商:
太空探索技术公司
运营商所在国:
美国
制造商(研发单位):
太空探索技术公司
制造商所在国:
美国
使用方式:
暂无
卫星简介
星链(Starlink)计划是由太空探索技术公司(SpaceX)提出的一个巨型低轨卫星互联网星座项目,计划在2019年至2024年间在太空搭建由约1.2万颗卫星组成的“星链”网络,其中1584颗将部署在地球上空550千米处的近地轨道,并从2020年开始工作。该卫星仍在工作。
2D轨道图
3D轨道图
轨道高度分析图
轨道倾角分析图
轨道综合分析图
查看轨道综合分析图